GFSFLT2_con_mucape_057.txt.gz
CAPE
0 0 0 0 0 0 0 0 0 0 0 0 0 122 208 147 318 567 366 366 313 418 313 273 228 195 223 317 322 852 658 99
0 0 0 0 0 0 0 0 0 0 0 0 0 0 251 201 465 462 518 521 501 479 438 243 259 245 267 420 336 704 761 526
0 0 0 0 0 0 0 0 0 0 0 0 0 2 292 282 310 526 395 419 291 350 478 444 212 225 332 698 524 561 547 825
0 0 0 0 0 0 0 0 0 0 0 0 0 2 81 338 440 447 498 416 283 194 205 414 421 360 348 556 825 801 734 639
0 0 0 0 0 0 0 0 0 0 0 0 0 0 42 42 105 374 490 332 211 100 189 477 542 460 515 491 910 1001 1073 719
0 0 0 0 0 0 0 0 0 0 0 0 0 0 6 2 140 277 457 275 246 163 150 487 501 606 512 528 768 1012 1162 1203
0 0 0 0 0 0 0 0 0 0 0 0 0 0 4 3 13 82 221 253 207 98 145 310 176 551 753 678 557 1031 1230 1332
0 0 0 0 0 0 0 0 0 0 0 0 0 0 1 0 6 12 104 147 82 46 8 198 79 509 704 791 759 659 1290 1440
0 0 0 0 0 0 0 0 0 0 0 0 0 0 0 0 2 27 44 129 233 141 101 175 291 34 10 787 887 856 875 1383
0 4 0 0 0 0 0 0 0 0 0 0 0 0 0 0 0 3 32 205 185 278 431 412 304 358 398 466 886 982 987 1094
0 0 0 0 0 0 0 0 0 0 0 0 0 0 0 0 0 13 1 104 114 115 207 438 419 142 285 195 579 948 1083 1086
5 3 0 0 0 1 2 0 0 0 0 0 0 0 0 0 0 0 0 0 55 26 46 80 682 655 218 5 76 1007 1446 1324
20 118 32 0 0 22 4 0 0 0 0 0 0 0 0 0 0 0 0 0 75 185 160 297 504 908 793 186 82 889 1335 1505
0 0 0 0 0 8 0 0 0 0 0 0 0 0 0 0 0 0 0 0 81 64 64 140 736 1602 1740 1684 1308 1542 2069 1881
0 0 0 0 0 0 0 0 0 0 0 0 0 0 0 0 0 0 4 0 23 6 10 117 445 1032 981 1816 2247 2142 2453 2348
0 0 0 0 0 0 0 0 0 0 0 0 0 0 0 0 0 1 35 36 1 28 87 133 323 647 549 1061 2209 2276 2504 2916
0 0 0 0 0 0 0 0 0 0 0 0 0 0 0 1 0 12 8 5 6 54 91 109 284 550 738 696 1182 1983 2237 2946
0 0 0 0 0 0 0 0 0 0 0 0 34 26 8 0 35 39 26 17 9 76 158 210 331 486 724 1016 1166 1448 1586 2518
0 0 0 0 0 0 0 0 0 0 0 1 10 34 17 23 44 58 56 26 49 39 77 396 408 545 556 1079 1388 1706 2019 2417

GFSFLT2_con_mucape_060.txt.gz
CAPE
0 0 0 0 0 0 0 0 0 0 0 0 0 0 323 271 238 204 194 414 363 343 277 279 178 155 134 390 239 182 126 134
0 0 0 0 0 0 0 0 0 0 0 0 0 20 69 192 251 218 388 420 431 482 414 377 325 251 87 176 356 310 153 63
0 0 0 0 0 0 0 0 0 0 0 0 0 10 11 155 132 150 408 337 419 500 393 392 401 351 274 142 135 516 476 215
0 0 0 0 0 0 0 0 0 0 0 0 0 0 1 58 130 199 268 387 426 469 451 349 392 367 306 198 165 117 549 479
0 0 0 0 0 0 0 0 0 0 0 0 0 0 0 0 147 401 418 511 481 400 320 159 229 330 393 328 286 219 275 479
0 0 0 0 0 0 0 0 0 0 0 0 0 0 0 1 192 361 342 332 396 176 62 14 12 314 410 410 525 368 275 401
0 0 0 0 0 0 0 0 0 0 0 0 0 0 0 1 24 49 195 187 173 115 37 27 2 4 404 479 456 620 543 549
0 0 0 0 0 0 0 0 0 0 0 0 0 0 0 0 14 28 81 139 108 55 324 324 154 99 320 522 462 806 831 814
0 0 0 0 0 0 0 0 0 0 0 0 0 0 0 0 2 4 18 84 81 57 191 233 220 60 110 411 375 613 936 968
0 0 0 0 0 0 0 0 0 0 0 0 0 0 0 0 0 0 0 4 73 45 165 267 271 119 178 154 143 679 700 1137
0 0 0 0 0 0 0 0 0 0 0 0 0 0 0 0 0 0 0 0 0 93 172 300 140 151 70 265 575 236 668 990
0 0 0 0 0 0 0 0 0 0 0 0 0 0 0 0 0 0 0 0 0 0 70 160 433 201 336 366 203 655 744 1025
0 0 0 0 0 1 5 0 0 0 0 0 0 0 0 0 0 0 0 0 0 0 0 164 145 575 707 611 393 84 117 725
0 0 0 0 0 0 0 0 0 0 0 0 0 0 0 0 0 0 0 0 0 0 0 4 154 334 694 762 693 379 36 70
0 0 0 0 0 0 0 0 0 0 0 0 0 0 0 0 0 0 0 0 0 0 0 0 230 84 21 211 583 531 423 1006
0 0 0 0 0 0 0 0 0 0 0 0 0 0 0 0 0 0 0 0 0 0 0 0 0 6 0 59 260 244 146 382
0 0 0 0 0 0 0 0 0 0 0 0 0 0 0 0 0 0 0 0 0 0 0 0 0 9 21 57 160 345 407 591
0 0 0 0 0 0 0 0 0 0 0 0 0 0 0 0 0 0 0 3 13 2 0 0 1 38 13 44 184 254 613 713
0 0 0 0 0 16 0 0 0 0 0 0 0 0 9 0 0 5 0 55 32 8 0 0 0 7 65 19 77 180 387 822

GFSFLT2_con_mucape_063.txt.gz
CAPE
0 0 0 0 0 0 0 0 0 0 0 0 0 0 0 107 245 232 186 166 157 220 164 107 188 204 173 142 49 85 112 71
0 0 0 0 0 0 0 0 0 0 0 0 0 0 0 34 166 295 331 308 241 229 217 169 231 224 186 174 95 48 82 65
0 0 0 0 0 0 0 0 0 0 0 0 0 0 0 0 20 181 202 326 368 306 201 204 209 243 217 219 209 131 131 114
0 0 0 0 0 0 0 0 0 0 0 0 0 0 0 164 5 44 99 205 335 278 242 264 209 171 207 252 261 266 230 149
0 0 0 0 0 0 0 0 0 0 0 0 0 0 0 239 321 388 320 250 187 243 198 203 198 211 279 257 207 206 255 230
0 0 0 0 0 0 0 0 0 0 0 0 0 0 0 0 176 465 426 394 243 209 192 220 164 241 178 229 229 233 195 319
0 0 0 0 0 0 0 0 0 0 0 0 0 0 0 0 0 15 388 599 424 247 162 85 100 114 59 57 130 185 227 234
0 0 0 0 0 0 0 0 0 0 0 0 0 0 0 0 0 0 24 133 207 296 253 98 46 46 79 0 68 179 333 365
0 0 0 0 0 0 0 0 0 0 0 0 0 0 0 0 0 0 0 58 67 109 201 88 3 8 136 18 16 257 351 422
0 0 0 0 0 0 0 0 0 0 0 0 0 0 0 0 0 0 0 1 12 25 114 13 74 55 208 106 113 107 610 526
0 0 0 0 0 0 0 0 0 0 0 0 0 0 0 0 0 0 0 0 0 0 15 109 63 117 167 256 224 320 171 399
0 0 0 0 0 0 0 0 0 0 0 0 0 0 0 0 0 0 0 0 0 0 0 132 100 112 104 182 355 327 140 185
0 0 0 0 0 0 0 0 0 0 0 0 0 0 0 0 0 0 0 0 0 0 0 0 1 28 104 139 155 309 538 226
0 0 0 0 0 0 0 0 0 0 0 0 0 0 0 0 0 0 0 0 0 0 0 0 0 18 54 88 124 372 519 541
0 0 0 0 0 0 0 0 0 0 0 0 0 0 0 0 0 0 0 0 0 0 0 0 0 1 65 21 49 65 196 132
0 0 0 0 0 0 0 0 0 0 0 0 0 0 0 0 0 0 0 0 0 0 0 0 0 0 0 0 0 0 119 84
0 0 0 0 0 0 0 0 0 0 0 0 0 0 0 0 0 0 0 0 0 0 0 0 0 0 0 0 0 0 0 49
0 0 0 0 0 0 0 0 0 0 0 0 0 0 0 0 0 0 0 0 0 0 0 0 4 0 0 0 0 0 0 28
0 0 0 0 0 5 10 25 17 0 0 0 0 0 0 0 0 0 0 0 7 0 0 4 3 2 0 0 0 0 11 0

GFSFLT2_con_mucape_069.txt.gz
CAPE
0 0 0 0 0 0 0 0 0 0 0 0 0 0 0 174 239 269 684 759 572 373 317 370 437 495 508 563 589 566 623 1069
0 0 0 0 0 0 0 0 0 0 0 0 0 0 39 118 225 98 354 799 753 535 349 334 447 491 496 603 675 687 603 743
0 0 0 0 0 0 0 0 0 0 0 0 0 0 40 71 84 295 561 390 703 669 458 364 324 372 418 537 626 627 591 900
0 0 0 0 0 0 0 0 0 0 0 0 0 0 206 222 141 198 359 365 445 558 334 393 320 299 302 435 489 519 802 1069
0 0 0 0 0 0 0 0 0 0 0 0 0 0 0 297 609 326 160 228 368 429 391 247 323 281 189 252 414 337 518 560
0 0 0 0 0 0 0 0 0 0 0 0 0 0 0 0 204 391 409 353 164 201 290 355 231 225 268 259 240 376 415 336
0 0 0 0 0 0 0 0 0 0 0 0 0 0 0 0 0 26 333 238 248 205 164 212 192 251 211 219 225 301 555 587
0 0 0 0 0 0 0 0 0 0 0 0 0 0 0 0 0 0 0 85 254 223 263 338 182 109 133 146 150 147 213 664
0 0 0 0 0 0 0 0 0 0 0 0 0 0 0 0 0 0 0 0 1 282 208 122 58 149 106 87 125 178 239 215
0 0 0 0 0 0 0 0 0 0 0 0 0 0 0 0 0 0 0 0 0 0 57 151 136 148 73 108 123 119 614 233
0 0 0 0 0 0 0 0 0 0 0 0 0 0 0 0 0 0 0 0 0 0 0 0 24 30 102 124 112 121 304 532
0 0 0 0 0 0 0 0 0 0 0 0 0 0 0 0 0 0 0 0 0 0 0 0 0 0 10 80 168 161 188 186
0 0 0 0 0 0 0 0 0 0 0 0 0 0 0 0 0 0 0 0 0 0 0 0 0 0 0 9 123 181 100 52
0 0 0 0 0 0 0 0 0 0 0 0 0 0 0 0 0 0 0 0 0 0 0 0 0 0 0 0 0 4 140 85
0 0 0 0 0 0 0 0 0 0 0 0 0 0 0 0 0 0 0 0 0 0 0 0 0 0 0 0 0 0 0 9
0 0 0 0 0 0 0 0 0 0 0 0 0 0 0 0 0 0 0 0 0 0 0 0 0 0 0 0 0 0 0 9
0 0 0 0 0 0 0 0 0 0 0 0 0 0 0 0 0 0 0 0 0 0 0 0 0 0 0 0 0 0 0 0
0 0 0 0 0 0 0 0 0 1 3 12 25 0 0 0 0 0 0 0 0 0 0 0 0 0 0 0 0 0 0 0
0 0 0 0 0 0 0 0 0 0 0 0 1 12 13 0 0 0 0 0 0 0 0 0 0 0 0 0 0 0 0 33

GFSFLT2_con_mucape_075.txt.gz
CAPE
0 34 102 58 44 16 87 57 53 111 7 0 110 205 283 665 612 183 1179 814 900 641 1000 564 665 643 661 1826 1898 2132 1953 2238
0 0 5 4 25 76 77 65 79 87 9 33 81 95 130 261 398 478 574 688 605 652 777 749 693 765 481 910 1773 2083 1979 2016
0 0 0 0 0 27 95 41 118 103 28 0 36 37 12 141 260 405 516 638 644 465 385 503 489 900 946 1006 1396 1955 1988 1999
0 0 0 0 7 1 43 32 13 88 8 19 8 0 71 532 376 418 359 395 587 405 408 403 387 502 563 1071 1208 1479 1734 2399
0 0 0 0 0 0 14 43 106 67 1 11 4 78 115 242 725 362 362 433 521 320 383 270 256 420 516 622 808 1055 1625 1563
1 6 0 0 0 0 1 13 35 118 62 0 5 11 60 142 269 264 594 304 500 510 325 279 237 366 523 617 624 598 1074 1321
0 0 1 7 0 0 0 0 76 176 109 4 0 0 6 83 89 119 114 148 260 282 466 387 323 279 427 525 524 587 645 1187
0 0 0 0 0 0 0 0 2 120 34 0 0 0 0 0 116 76 68 352 157 154 147 150 221 405 392 244 207 305 352 584
0 0 0 0 0 0 0 0 7 104 7 0 0 0 0 0 0 0 96 92 35 39 49 141 138 176 198 125 110 103 72 160
67 57 0 0 0 0 0 0 1 0 0 0 0 0 0 0 0 0 0 0 0 0 144 141 94 54 81 74 85 125 135 179
37 109 32 0 0 0 0 0 0 0 0 0 0 0 0 0 0 0 0 0 0 0 0 0 66 175 126 84 82 52 82 73
7 32 5 34 0 0 0 0 0 0 0 0 0 0 3 0 0 0 0 0 0 0 0 0 0 0 0 42 102 144 166 79
32 34 66 0 0 0 0 0 0 0 0 0 0 0 0 0 0 0 0 0 0 0 0 0 0 0 0 0 0 76 47 90
40 72 192 0 0 0 0 0 0 0 0 0 0 0 0 0 0 0 0 0 0 0 0 0 0 0 0 0 0 0 0 0
54 123 23 0 0 1 0 0 0 0 0 0 0 0 0 0 0 0 0 0 0 0 0 0 0 0 0 1 0 0 0 0
4 1 0 0 0 0 0 0 0 0 0 0 0 0 0 0 0 0 0 0 0 0 0 0 0 0 0 1 4 4 0 0
1 0 0 0 0 0 0 0 0 0 0 0 0 0 1 2 4 6 2 2 2 0 0 5 11 1 0 0 0 0 0 0
177 29 24 2 1 0 0 0 0 0 0 0 0 2 4 10 18 4 17 10 3 5 1 13 9 10 13 0 0 0 0 0
115 55 29 28 1 0 0 0 0 0 2 3 4 6 13 19 21 5 27 16 10 0 0 9 9 0 0 0 0 0 0 0

GFSFLT2_con_mucape_078.txt.gz
CAPE
0 0 0 36 76 67 58 12 27 119 178 190 217 433 760 682 373 272 717 513 354 756 940 456 568 284 1275 2252 2597 2599 2383 2800
0 0 0 29 16 65 33 7 68 139 181 239 264 312 402 384 232 118 414 467 295 323 450 340 747 380 1303 2217 2571 2611 2417 2584
8 0 0 5 20 2 14 59 111 177 106 373 249 123 53 221 143 76 115 263 267 270 315 343 366 327 164 1933 2534 2677 2628 2545
5 0 0 2 5 0 74 71 30 31 6 149 59 25 0 7 127 182 190 200 43 0 27 298 251 185 309 267 866 2215 2439 2574
9 5 0 0 0 0 10 45 287 44 44 36 2 0 62 62 27 127 171 221 218 117 240 117 152 179 237 229 274 558 1264 2499
14 2 0 0 0 0 0 6 16 121 278 29 0 34 96 172 172 67 138 261 231 187 199 216 150 142 222 134 130 214 569 951
2 0 0 0 0 0 0 0 129 341 373 19 3 32 52 79 104 82 105 110 184 304 142 140 56 25 85 168 101 105 192 295
0 0 0 0 2 6 0 0 40 180 191 7 0 0 28 7 8 17 43 30 97 97 156 201 143 145 184 98 188 299 343 198
10 5 1 1 0 0 0 0 377 320 58 0 0 1 0 0 0 0 0 21 17 41 63 53 102 45 86 135 108 157 40 193
47 1 0 0 0 0 0 20 221 201 34 7 0 0 0 0 0 0 0 0 0 0 0 0 3 15 0 74 76 60 69 90
84 0 6 1 0 0 0 30 68 32 1 1 0 0 0 0 0 0 0 0 0 0 0 3 61 57 65 22 34 30 34 62
68 46 4 39 0 0 0 35 2 0 0 0 0 0 0 0 0 0 0 0 0 0 0 0 0 0 17 53 88 86 10 39
61 94 179 1 0 0 0 6 0 1 0 0 0 0 0 0 0 0 0 0 0 0 0 0 0 0 0 0 0 0 2 56
36 157 318 2 0 0 2 0 0 0 0 0 0 0 0 0 0 0 0 0 0 0 0 0 0 0 0 0 1 0 0 0
160 377 178 3 1 0 0 0 0 0 0 0 0 0 0 0 0 0 0 0 0 0 0 0 0 0 0 12 9 9 0 0
83 68 74 70 1 0 0 0 0 0 0 0 0 0 0 0 0 0 0 0 0 0 0 0 2 1 0 8 16 13 12 11
18 3 3 0 4 0 0 0 0 0 0 0 0 0 0 0 0 0 0 1 0 0 0 0 8 8 1 10 7 0 0 0
473 112 160 114 26 14 0 0 0 0 0 0 0 0 0 0 4 0 1 6 3 1 0 1 7 8 22 21 15 0 0 0
250 352 287 113 214 28 9 5 0 0 5 6 1 1 1 9 6 6 5 14 0 0 0 3 3 0 16 0 0 0 0 0

GFSFLT2_con_mucape_084.txt.gz
CAPE
0 0 0 0 0 0 15 0 13 178 87 197 440 461 476 455 189 113 175 346 336 205 167 170 120 257 238 701 646 506 611 567
0 0 0 0 0 19 37 0 0 185 77 12 243 546 454 400 125 254 230 345 399 292 247 303 167 178 290 290 790 746 714 825
0 0 0 0 0 29 50 4 0 89 74 78 111 327 251 199 215 318 543 416 377 272 201 262 266 180 280 337 397 510 827 769
0 0 0 0 2 58 86 43 86 59 50 343 195 83 126 291 336 354 296 339 401 213 181 188 232 201 259 241 161 204 205 431
8 10 0 0 0 19 29 24 27 8 1 147 194 141 89 69 180 289 255 246 179 172 242 165 187 286 236 166 147 144 132 173
50 15 0 0 0 6 15 24 17 4 0 12 41 76 23 2 38 251 140 272 254 149 192 171 88 136 191 104 118 111 84 71
26 0 0 0 0 0 0 15 13 0 0 2 18 34 15 4 0 18 71 58 133 256 158 137 113 108 126 150 35 27 50 49
0 2 0 0 0 8 33 197 24 0 0 0 0 0 0 7 0 10 50 94 100 154 183 131 106 177 90 64 56 12 77 118
0 0 0 2 0 11 169 278 24 28 0 0 0 2 0 0 5 9 30 59 165 118 163 311 238 78 68 76 95 82 108 100
0 0 16 1 0 15 83 168 153 50 1 2 0 6 0 2 3 56 56 64 64 177 168 289 412 219 223 154 109 102 156 211
0 0 0 0 0 0 0 39 72 62 36 29 0 0 0 0 0 9 9 33 33 44 30 43 76 41 30 47 73 108 104 96
0 0 0 0 0 1 0 0 33 1 0 0 0 0 0 0 0 0 0 0 1 0 0 0 0 0 11 12 9 22 36 36
0 0 0 0 0 0 0 0 63 37 9 7 0 0 0 0 0 0 0 0 0 0 0 0 0 0 0 0 0 0 0 4
0 0 0 0 0 0 0 0 36 96 25 13 17 2 7 4 0 0 0 0 0 0 0 0 0 0 0 0 0 0 0 0
0 0 0 0 0 0 0 1 40 54 81 73 54 23 5 0 0 0 0 0 0 0 0 0 0 0 0 0 0 0 0 0
0 0 0 0 0 0 0 5 0 22 29 23 18 0 0 0 0 0 0 0 0 0 0 0 0 0 0 0 0 0 0 0
0 0 0 0 0 0 2 21 20 4 0 0 0 0 0 0 0 0 0 0 0 0 0 0 0 0 0 0 0 0 0 0
0 0 0 0 0 0 0 1 0 0 0 0 0 0 0 0 0 0 0 0 0 0 0 0 0 0 0 0 0 0 0 0
0 0 0 0 10 4 0 0 0 0 0 0 0 0 0 0 0 0 0 0 0 0 0 0 0 0 0 0 0 0 0 0

GFSFLT2_con_mucape_087.txt.gz
CAPE
0 0 0 0 0 0 0 0 0 18 8 65 304 583 494 350 283 217 152 263 109 90 53 94 85 153 410 327 206 202 143 201
0 0 0 0 0 0 0 0 0 75 25 9 145 577 519 361 292 255 225 198 280 141 163 79 80 221 249 558 352 275 281 208
0 0 0 0 0 0 0 0 0 80 52 48 126 447 458 358 297 271 88 159 370 311 285 252 144 237 251 287 423 469 478 482
0 0 0 0 0 0 0 2 9 15 21 83 117 306 323 304 276 128 160 123 226 274 253 303 304 241 280 285 199 157 238 535
7 14 0 0 0 0 0 0 2 0 0 38 128 94 203 203 148 173 165 116 153 233 168 215 274 236 288 276 194 86 107 168
40 44 7 0 0 0 0 0 0 0 0 49 100 164 130 84 51 24 182 196 380 236 239 256 224 205 159 156 146 80 89 82
42 56 14 0 0 0 0 0 0 0 0 18 47 72 50 69 38 70 35 104 197 135 231 231 185 240 185 160 93 78 70 63
0 15 23 24 0 0 12 0 0 0 0 6 3 23 24 64 38 24 53 20 34 193 175 238 180 144 103 97 34 0 38 40
0 0 5 21 0 0 55 77 0 0 0 0 9 46 34 36 15 34 11 24 46 177 162 175 212 190 144 230 67 33 19 42
0 0 0 0 0 0 0 20 14 0 0 0 6 0 19 7 3 3 33 10 108 118 63 164 147 258 166 214 119 73 66 63
0 0 0 0 0 0 0 0 18 7 45 31 26 17 0 5 8 56 97 22 36 80 96 192 378 238 208 162 274 243 136 143
0 0 0 0 0 0 0 0 53 68 85 37 65 28 4 12 30 58 107 117 111 82 67 60 72 65 72 29 5 9 1 41
0 0 0 0 0 0 0 0 89 137 104 71 43 48 2 0 0 0 0 0 0 0 0 0 0 0 0 0 0 0 0 1
0 0 0 0 0 0 0 0 6 88 35 52 51 46 34 7 0 0 0 0 0 0 0 0 0 0 0 0 0 0 0 0
0 0 0 0 0 0 0 0 0 21 106 119 94 66 62 73 28 6 0 0 0 0 0 0 0 0 0 0 0 0 0 0
0 0 0 0 0 0 0 0 0 31 59 112 101 54 66 52 14 16 0 0 0 0 0 0 0 0 0 0 0 0 0 0
0 0 0 0 0 0 0 0 0 0 6 15 29 29 20 11 0 0 0 0 0 0 0 0 0 0 0 0 0 0 0 0
0 0 0 0 0 0 0 0 0 0 0 0 2 1 0 0 0 0 0 0 0 0 0 0 0 0 0 0 0 0 0 0
0 0 0 0 0 0 0 0 0 0 0 0 0 0 0 0 0 0 0 0 0 0 0 0 0 0 0 0 0 0 0 0